Regional Weather Roundup
Issued by NWS

Home | Current Version | Previous Version | Graphics & Text | Print | Product List | Glossary On
Versions: 1 2 3 4 5 6 7 8 9 10 11 12 13 14 15 16 17 18 19 20 21 22 23 24 25 26 27 28
000
ASUS45 KBOU 180410
RWRCO

WEATHER ROUNDUP FOR COLORADO
NATIONAL WEATHER SERVICE DENVER/BOULDER CO
900 PM MST FRI NOV 17 2017

NOTE: "FAIR" INDICATES FEW OR NO CLOUDS BELOW 12000 FEET WITH NO
SIGNIFICANT WEATHER AND/OR OBSTRUCTIONS TO VISIBILITY.

COZ001>005-013-030-031-180500-
...NORTHWEST COLORADO...

CITY           SKY/WX    TMP DP  RH WIND       PRES   REMARKS
CRAIG          CLOUDY    29  25  85 W7        30.06R WCI  22
HAYDEN         CLOUDY    27  23  85 W10       30.05R WCI  17
MEEKER         CLOUDY    30  21  69 MISG      30.06R
RABBIT EARS PA HVY SNOW  16  14  93 MISG      29.89R VSB 1/4
STEAMBOAT SPGS CLOUDY    26  25  98 SW12      30.00R WCI  15
WALDEN         CLOUDY    23  18  80 SW7       29.92R WCI  15
$$

COZ006>008-011-180500-
...WEST CENTRAL VALLEYS...

CITY           SKY/WX    TMP DP  RH WIND       PRES   REMARKS
GRAND JUNCTION CLOUDY    38  34  85 SE9       30.04R
MONTROSE       LGT SNOW  34  31  88 NW25G39   30.09R FOG     WCI  21
EAGLE          LGT SNOW  30  28  93 W5        30.06R WCI  25
RIFLE          LGT SNOW  32  32 100 NW3       30.08R FOG
DELTA          CLOUDY    41  29  61 W25G32    30.01R
NUCLA          MIX PCPN  37  30  75 NW30G37   30.09R
$$

COZ017>023-064>068-180500-
...SOUTHWEST COLORADO...

CITY           SKY/WX    TMP DP  RH WIND       PRES   REMARKS
DURANGO        MOCLDY    44  43  96 SW16G30   29.88F
CORTEZ         CLOUDY    39  30  70 NW25G39   30.01R
PAGOSA SPRINGS TSTM      45  34  66 SW17G31   29.88R
TELLURIDE      LGT SNOW  28  26  93 W31G47    30.06R VSB 3/4 WCI  12
WOLF CREEK PAS TSTM      27  27 100 SW25      29.94F VSB 1/2 WCI  11
$$

COZ009-010-012-014-032>034-037-058>063-180500-
...CENTRAL COLORADO...

CITY           SKY/WX    TMP DP  RH WIND       PRES   REMARKS
ASPEN          LGT SNOW  28  26  92 N10G18    30.00R VSB 1   WCI  19
BUENA VISTA    LGT SNOW  31  28  88 NW30G37   29.82R WCI  16
COPPER MTN     CLOUDY    18  12  79 MISG      29.92R
BERTHOUD PASS  HVY SNOW   9  -2  61 MISG      29.82S VSB<1/4
COTTONWOOD PAS SNOW      34  32  93 N5        29.82R VSB 1/2 WCI  30
GUNNISON       LGT SNOW  32  28  86 N18G35    29.89R FOG     WCI  20
KREMMLING      LGT SNOW  34  27  75 NW3       29.99R
LEADVILLE      SNOW      19  15  84 N24G39    29.91R VSB 1/2 WCI   2
MONARCH PASS   CLOUDY    27  27 100 W35G66    29.91R WCI   9
SALIDA         CLOUDY    40  35  83 NW21G33   29.87R
SUNLIGHT       CLOUDY    16  14  93 MISG      30.01R
WILKERSON PASS CLOUDY    21  19  93 N15G37    29.84R WCI   8
$$

COZ069>075-180500-
...SAN LUIS VALLEY/SANGRE DE CRISTO MOUNTAINS...

CITY           SKY/WX    TMP DP  RH WIND       PRES   REMARKS
ALAMOSA        FAIR      44  30  57 W23G29    29.79S
DEL NORTE      FAIR      41  32  69 SW22G29   29.79F
LA VETA PASS   CLOUDY    34  30  86 S23G43      N/A  WCI  22
SAGUACHE       FAIR      45  25  45 W17G25    29.78R
$$

COZ035-036-038>040-180500-
...NORTHERN COLORADO FRONT RANGE...

CITY           SKY/WX    TMP DP  RH WIND       PRES   REMARKS
DENVER INTL AP CLOUDY    38  34  85 CALM      29.79F
DMNS CITY PARK   N/A     37  37  97 NE5G10    29.80R
AURORA         LGT RAIN  33  33  99 E9        29.79F WCI  25
FRONT RANGE AP LGT RAIN  39  37  92 CALM      29.80S
ERIE MUNI ARPT MOCLDY    40  37  90 SW3       29.86R
BOULDER MUN AP FAIR      41  36  81 W8        29.80R
CENTENNIAL     LGT SNOW  33  33 100 E10       29.79S VSB 1   WCI  25
BROOMFIELD     CLOUDY    39  37  93 S6        29.79S
FORT COLLINS   FAIR      41  22  46 NW24G30   29.78F
LONGMONT       FAIR      40  37  88 NW5       29.83R
$$

COZ041-046-047-076>085-087-088-180500-
...PIKES PEAK/PALMER DIVIDE AND SOUTHERN FOOTHILLS...

CITY           SKY/WX    TMP DP  RH WIND       PRES   REMARKS
COLO. SPRINGS  LGT RAIN  40  32  73 N31G41    29.74R
A. F. ACADEMY  LGT SNOW  34  32  93 N14       29.76R FOG     WCI  24
SCHRIEVER AFB  MOCLDY    37  32  81 NE22G31   29.74R
CHEYENNE MTN   LGT RAIN  37  32  84 NW21G30   29.70R
ELLICOTT       NOT AVBL
FALCON         LGT SNOW  33  32  96 N25G33    29.76R WCI  20
FORT CARSON    CLOUDY    43  34  70 N25G38    29.72R
LIMON          FLURRIES  34  34 100 N20       29.80R WCI  23
MONUMENT HILL  LGT SNOW  32  30  93 NE13G18   29.80S VSB 3/4 WCI  22
CANON CITY     FAIR      45  32  61 SE5       29.65R
WALSENBURG     MOCLDY    55  32  41 SW21G28   29.71R
TRINIDAD       FAIR      57  28  33 W24G30    29.70S
$$

COZ042>045-048>051-090-091-180500-
...NORTHEAST COLORADO...

CITY           SKY/WX    TMP DP  RH WIND       PRES   REMARKS
GREELEY ARPT   FAIR      41  27  57 NW21      29.78R
AKRON          LGT RAIN  39  37  92 NW10      29.77R
BURLINGTON     MOCLDY    41  31  67 N18       29.72R
WRAY           NOT AVBL
YUMA           RAIN      41  37  87 NW7       29.75R
STERLING       CLOUDY    41  39  93 W9        29.75R
HOLYOKE        LGT RAIN  43  37  81 W3        29.71F
FORT MORGAN    CLOUDY    41  32  71 NW13G18   29.80R
$$

COZ086-089-092>099-180500-
...SOUTHEAST COLORADO...

CITY           SKY/WX    TMP DP  RH WIND       PRES   REMARKS
PUEBLO         FAIR      48  36  63 NE20G29   29.68R
LA JUNTA       FAIR      50  32  50 N18G28    29.69R
LAMAR          FAIR      50  30  46 NE20G30   29.62R
SPRINGFIELD      N/A     48  35  60 SW9       29.62F
$$




USA.gov is the U.S. government's official web portal to all federal, state and local government web resources and services.